Flag for Germany Weather past 2 weeks in Strausberg, Brandenburg, Germany

Now
63 °F

Light rain. Overcast.


Feels Like: 63 °F
Forecast: 63 / 72 °F
Wind: 13 mph from North

Location: Berlin-Schoenefeld

Current Time: Jul 25, 2014 at 1:23:04 AM

Latest Report: Jul 25, 2014 at 12:50 AM


Visibility: N/A

Pressure: 29.98 "Hg

Humidity: 88%

Dew point: 59 °F

Location of StrausbergLocation

Historic Weather in Strausberg — Graph

°F

Strausberg temperature yesterday

Maximum temperature yesterday: 70 °F (at 10:50 AM)
Minimum temperature yesterday: 61 °F (at 3:50 AM)
Average temperature yesterday: 65 °F

Past Weeks' High & Low Weather Summary

 TemperatureHumidityPressure
High93 °F (Jul 20, 3:50 PM)100% (Jul 10, 5:20 AM)30.18 "Hg (Jul 10, 5:20 AM)
Low54 °F (Jul 13, 4:20 AM)24% (Jul 20, 3:50 PM)29.68 "Hg (Jul 10, 1:20 AM)
Average71 °F65%29.94 "Hg
* Reported Jul 10 12:20 AM — Jul 25 12:20 AM, Strausberg, Weather by CustomWeather, © 2014

Note: Actual official high and low records may vary slightly from our data, if they occured in-between our weather recording intervals... More about our weather records

Advertising

Strausberg weather history for previous 24 hours

 ConditionsComfort  
Time TempWeatherWind HumidityBarometerVisibility
12:20 AM
Jul 25
63 °FLight rain. Mostly cloudy.9 mph88%29.98 "HgN/A
11:50 PM
Jul 24
63 °FLight rain. Mostly cloudy.10 mph88%29.98 "HgN/A
11:20 PM63 °FLight rain. Mostly cloudy.9 mph94%29.98 "HgN/A
10:50 PM63 °FLight rain. Mostly cloudy.8 mph94%29.98 "HgN/A
10:20 PM63 °FLight rain. Mostly cloudy.10 mph88%29.98 "HgN/A
9:50 PM63 °FLight rain. More clouds than sun.8 mph94%30.01 "Hg6 mi
9:20 PM63 °FLight rain. Broken clouds.9 mph88%30.01 "Hg6 mi
8:50 PM63 °FLight rain. Partly sunny.9 mph88%30.01 "HgN/A
8:20 PM64 °FLight rain. Partly sunny.13 mph83%30.01 "HgN/A
7:50 PM64 °FLight rain. Partly sunny.12 mph83%30.01 "HgN/A
7:20 PM64 °FLight rain. Partly sunny.13 mph83%30.01 "HgN/A
6:50 PM64 °FLight rain. Partly sunny.12 mph83%30.01 "HgN/A
6:20 PM66 °FLight rain. Clear.14 mph78%30.01 "HgN/A
5:50 PM68 °FLight rain. Clear.16 mph73%30.01 "HgN/A
5:20 PM68 °FLight rain. Partly sunny.16 mph69%30.01 "HgN/A
4:50 PM70 °FBroken clouds.13 mph69%30.01 "HgN/A
4:20 PM68 °FLight rain. Broken clouds.14 mph73%30.01 "HgN/A
3:50 PM68 °FLight rain. Overcast.13 mph78%30.04 "HgN/A
3:20 PM68 °FLight rain. More clouds than sun.12 mph78%30.04 "HgN/A
2:50 PM68 °FLight rain. More clouds than sun.12 mph78%30.04 "HgN/A
2:20 PM70 °FLight rain. Overcast.12 mph69%30.04 "HgN/A
1:50 PM70 °FLight rain. Overcast.8 mph69%30.04 "HgN/A
1:20 PM70 °FOvercast.10 mph69%30.04 "HgN/A
12:50 PM70 °FLight rain. Overcast.12 mph69%30.04 "HgN/A
12:20 PM70 °FPartly sunny.13 mph69%30.04 "HgN/A
11:50 AM70 °FPartly sunny.10 mph64%30.01 "HgN/A
11:20 AM70 °FPartly sunny.10 mph64%30.01 "HgN/A
10:50 AM70 °FScattered clouds.7 mph73%30.01 "HgN/A
10:20 AM66 °FPartly sunny.7 mph83%30.01 "HgN/A
9:50 AM64 °FScattered showers. Partly sunny.5 mph83%30.04 "HgN/A
9:20 AM63 °FScattered showers. Broken clouds.2 mph88%30.04 "HgN/A
8:50 AM63 °FLight rain. Clear.2 mph83%30.04 "HgN/A
8:20 AM63 °FSprinkles. Partly sunny.6 mph83%30.04 "HgN/A
7:50 AM63 °FSprinkles. Broken clouds.8 mph83%30.04 "HgN/A
7:20 AM63 °FSunny.7 mph77%30.04 "Hg10 mi
6:50 AM63 °FSunny.7 mph77%30.01 "Hg10 mi
6:20 AM61 °FSunny.6 mph83%30.01 "Hg10 mi
5:50 AM61 °FClear.7 mph83%30.01 "Hg10 mi
5:20 AM61 °FClear.7 mph77%30.01 "Hg10 mi
4:50 AM61 °FClear.8 mph77%30.01 "Hg10 mi
4:20 AM61 °FClear.7 mph77%30.01 "Hg10 mi
3:50 AM61 °FClear.10 mph77%30.01 "Hg10 mi
3:20 AM63 °FClear.9 mph77%30.01 "Hg10 mi
2:50 AM63 °FClear.8 mph73%30.01 "Hg10 mi
2:20 AM63 °FClear.9 mph77%30.04 "Hg10 mi
1:50 AM63 °FClear.8 mph77%30.04 "Hg10 mi
1:20 AM63 °FClear.7 mph77%30.04 "Hg10 mi
Weather by CustomWeather, © 2014

See weather overviewHow to use our weather pages